Tracking 19242 objects as of 20-Sep-2018
HD Live streaming from Space Station
objects crossing your sky now

DELTA 2 R/B(2)

Track DELTA 2 R/B(2) now!


NORAD ID: 25548
Int'l Code: 1998-068C
Perigee: 1,273.5 km
Apogee: 36,672.9 km
Inclination: 19.9 °
Period: 669.2 minutes
Semi major axis: 25344 km
RCS: 3.2304 m2 (large)
Launch date: November 22, 1998
Source: United States (US)
Launch site: AIR FORCE EASTERN TEST RANGE (AFETR)

Note: This is a ROCKET BODY
aabbcc
Your satellite tracking list
Your tracking list is empty




NASA's NSSDC Master Catalog

Two Line Element Set (TLE):
1 25548U 98068C   18262.27517973 -.00000121 +00000-0 +00000-0 0  9990
2 25548 019.8868 298.8547 6983718 191.2897 135.6772 02.15171603155893
Source of the keplerian elements: AFSPC